Flag for Japan Weather past 2 weeks in Sapporo, Japan

Now
63 °F

Mild.


Feels Like: 63 °F
Forecast: 50 / 66 °F
Wind: 6 mph from Northeast

Location: Sapporo

Current Time: Jul 7, 2015 at 1:58:39 PM

Latest Report: Jul 7, 2015 at 11:00 AM


Visibility: N/A

Pressure: 29.76 "Hg

Humidity: 90%

Dew point: 60 °F

Location of SapporoLocation

Historic Weather in Sapporo — Graph

°F

Sapporo temperature yesterday

Maximum temperature yesterday: 74 °F (at 11:00 AM)
Minimum temperature yesterday: 62 °F (at 10:00 PM)
Average temperature yesterday: 66 °F

Past Weeks' High & Low Weather Summary

 TemperatureHumidityPressure
High76 °F (Jun 26, 1:00 PM)94% (Jun 23, 8:00 PM)29.93 "Hg (Jun 23, 8:00 PM)
Low55 °F (Jun 28, 5:00 AM)47% (Jul 2, 12:00 PM)29.32 "Hg (Jul 1, 5:00 PM)
Average63 °F78%29.74 "Hg
* Reported Jun 22 11:00 AM — Jul 7 11:00 AM, Sapporo, Weather by CustomWeather, © 2015

Note: Actual official high and low records may vary slightly from our data, if they occured in-between our weather recording intervals... More about our weather records

Advertising

Sapporo weather history for previous 24 hours

 ConditionsComfort  
Time TempWeatherWind HumidityBarometerVisibility
11:00 AM
Tue, Jul 7
63 °FMild.6 mph90%29.76 "HgN/A
10:00 AM65 °FMild.3 mph87%29.73 "HgN/A
9:00 AM68 °FSprinkles. Overcast.8 mph66%29.70 "Hg9 mi
8:00 AM70 °FMild.10 mph52%29.70 "HgN/A
7:00 AM69 °FMild.9 mph54%29.69 "HgN/A
5:00 AM63 °FMild.10 mph71%29.70 "HgN/A
4:00 AM62 °FCool.16 mph75%29.71 "HgN/A
3:00 AM61 °FOvercast.9 mph80%29.73 "Hg12 mi
2:00 AM61 °FCool.10 mph81%29.76 "HgN/A
1:00 AM61 °FCool.9 mph82%29.78 "HgN/A
12:00 AM61 °FCool.8 mph82%29.80 "HgN/A
11:00 PM
Mon, Jul 6
63 °FMild.8 mph80%29.79 "HgN/A
10:00 PM62 °FCool.8 mph82%29.81 "HgN/A
9:00 PM63 °FPassing clouds.7 mph82%29.82 "Hg9 mi
8:00 PM64 °FMild.7 mph80%29.83 "HgN/A
7:00 PM66 °FMild.6 mph73%29.83 "HgN/A
6:00 PM69 °FScattered clouds.6 mph67%29.83 "Hg6 mi
5:00 PM70 °FMild.5 mph65%29.83 "HgN/A
4:00 PM69 °FMild.5 mph67%29.85 "HgN/A
3:00 PM69 °FScattered clouds.12 mph65%29.86 "Hg12 mi
2:00 PM72 °FMild.13 mph60%29.86 "HgN/A
1:00 PM73 °FMild.10 mph58%29.86 "HgN/A
Weather by CustomWeather, © 2015

See weather overviewHow to use our weather pages